Location: *
(49.7115°N, 15.0136°E)
Time: 09:58:34
(UTC+00:00)

Cosmos 540 Rocket - Pass Details

Date: 27 February 2020
Orbit: 740 x 754 km, 74.1° (Epoch: 09 April)

Event Time Altitude Azimuth Distance (km) Brightness Sun altitude
Rises 19:27:42 0° 215° (SW) 3,173 6.9 -27.8°
Reaches altitude 10° 19:30:05 10° 220° (SW) 2,255 6.1 -28.1°
Maximum altitude 19:35:06 55° 298° (WNW) 896 4.0 -28.9°
Drops below altitude 10° 19:40:10 10° 17° (NNE) 2,280 6.0 -29.6°
Sets 19:42:36 0° 22° (NNE) 3,211 6.8 -30.0°
